Flag for India Weather past 2 weeks in Wardha, Maharashtra, India

Now
75 °F

Partly cloudy.


Feels Like: 75 °F
Forecast: 78 / 88 °F
Wind: 2 mph from North

Location: Nagpur Sonegaon

Current Time: Aug 31, 2015 at 12:10:28 AM

Latest Report: Aug 30, 2015 at 11:40 PM


Visibility: 2 mi

Pressure: 29.77 "Hg

Humidity: 89%

Dew point: 72 °F

Location of WardhaLocation

Historic Weather in Wardha — Graph

°F

Wardha temperature yesterday

Maximum temperature yesterday: 82 °F (at 2:40 PM)
Minimum temperature yesterday: 75 °F (at 5:40 AM)
Average temperature yesterday: 78 °F

Past Weeks' High & Low Weather Summary

 TemperatureHumidityPressure
High99 °F (Aug 23, 1:40 PM)100% (Aug 17, 2:40 AM)29.89 "Hg (Aug 17, 2:40 AM)
Low73 °F (Aug 26, 3:10 AM)49% (Aug 25, 4:40 PM)29.62 "Hg (Aug 26, 3:10 PM)
Average83 °F79%29.75 "Hg
* Reported Aug 15 10:40 PM — Aug 30 10:40 PM, Wardha, Weather by CustomWeather, © 2015

Note: Actual official high and low records may vary slightly from our data, if they occured in-between our weather recording intervals... More about our weather records

Advertising

Wardha weather history for previous 24 hours

 ConditionsComfort  
Time TempWeatherWind HumidityBarometerVisibility
10:40 PM
Sun, Aug 30
75 °FPartly cloudy.3 mph89%29.77 "Hg1 mi
10:10 PM75 °FPartly cloudy.3 mph89%29.77 "Hg1 mi
9:40 PM75 °FPartly cloudy.3 mph89%29.77 "Hg1 mi
9:10 PM75 °FPartly cloudy.3 mph94%29.77 "Hg1 mi
8:40 PM75 °FMostly cloudy.5 mph94%29.77 "Hg1 mi
8:10 PM75 °FMostly cloudy.5 mph94%29.74 "Hg1 mi
7:40 PM77 °FMostly cloudy.5 mph89%29.74 "Hg1 mi
7:10 PM77 °FMostly cloudy.3 mph89%29.71 "Hg1 mi
6:40 PM79 °FMostly cloudy.6 mph84%29.71 "Hg1 mi
6:10 PM79 °FBroken clouds.2 mph89%29.68 "Hg2 mi
5:10 PM81 °FBroken clouds.6 mph84%29.68 "Hg2 mi
4:40 PM82 °FBroken clouds.5 mph79%29.68 "Hg2 mi
3:40 PM82 °FBroken clouds.3 mph79%29.68 "Hg2 mi
3:10 PM82 °FBroken clouds.7 mph74%29.68 "Hg2 mi
2:40 PM82 °FMore clouds than sun.6 mph79%29.71 "Hg1 mi
2:10 PM81 °FMore clouds than sun.6 mph79%29.71 "Hg1 mi
12:40 PM79 °FLight rain. More clouds than sun.3 mph84%29.77 "Hg1 mi
11:10 AM77 °FLight rain. More clouds than sun.No wind89%29.80 "Hg1 mi
10:40 AM77 °FLight rain. More clouds than sun.No wind89%29.80 "Hg1 mi
9:40 AM77 °FLight rain. More clouds than sun.3 mph89%29.77 "Hg1 mi
8:40 AM79 °FBroken clouds.No wind84%29.77 "Hg2 mi
8:10 AM77 °FBroken clouds.No wind83%29.74 "Hg2 mi
6:40 AM75 °FBroken clouds.5 mph89%29.71 "Hg2 mi
5:40 AM75 °FPartly cloudy.5 mph89%29.71 "Hg2 mi
4:10 AM77 °FPartly cloudy.5 mph83%29.68 "Hg2 mi
2:10 AM77 °FPassing clouds.No wind83%29.71 "Hg2 mi
1:40 AM77 °FPassing clouds.3 mph83%29.71 "Hg2 mi
1:10 AM77 °FPassing clouds.3 mph83%29.71 "Hg2 mi
12:40 AM77 °FPassing clouds.3 mph83%29.71 "Hg2 mi
12:10 AM77 °FPassing clouds.6 mph83%29.71 "Hg2 mi
Weather by CustomWeather, © 2015

See weather overviewHow to use our weather pages